Location: Eastchurch
(51.4000°N, 0.8667°E)
Time: 22:23:03
(UTC+00:00)

Cosmos 1486 Rocket - Pass Details

Date: 19 January 2026
Orbit: 754 x 779 km, 74.1° (Epoch: 7 February)

Event Time Altitude Azimuth Distance (km) Brightness Sun altitude
Rises 18:16:50 0° 337° (NNW) 3,275 7.4 -17.1°
Reaches altitude 10° 18:19:20 10° 344° (NNW) 2,342 6.6 -17.5°
Maximum altitude 18:24:28 47° 58° (ENE) 1,027 4.2 -18.3°
Enters shadow 18:26:51 28° 114° (ESE) 1,414 4.9 -18.6°
